The OGO 5 satellite re-entered the Earths atmosphere on the 30th June, 2011 @ 01:46 GMT ± 48 hours.
Inclination: 49°Revolution Number: 6142 Predicted Location: 42.4°N, 231.7°E
The OGO 5 satellite that was launched on the 4th March, 1968, from the Air Force Station at Cape Canaveral, is predicted to re-enter the Earths atmosphere on the 30th June, 2011 @ 11:59 GMT ±48 hours.
OGO 5 1 03138U 68014A 11178.41388889 +.00004910 -34713-5 +10000-3 0 05191 2 03138 048.9989 047.3055 9169745 110.7341 359.9781 00.39588615061460
Period: 3637.41 minutesInclination: 49°Apogee: 143811 kmPerigee: 127 km Revolution Number: 5833 Predicted Location: 43.2°N, 75.7°E